sat.trackr.live / text

‹ back to catalog

STARLINK-4468

NORAD 53969 · 2022-125F

PAYLOAD ACTIVE UNKNOWN

§ Identity

Operator
Country
US
Launch date
2022-10-05
Launch site
AFWTR
Launch vehicle
Mass (kg)
RCS (m²)

Purposes: comms

External: N2YO · Heavens-Above · Gunter

§ Orbital elements

Epoch: 2026-09-20T20:57:36.334944Z

Period
93.90 min
Inclination
53.1597°
Eccentricity
0.0000606
Mean motion
15.33551347 rev/d
Perigee alt
464.8 km
Apogee alt
465.6 km
Semi-major
6,843.4 km
B*
4.1249e-5
RAAN
59.8598°
Arg perigee
86.7183°
Mean anomaly
273.3889°
Rev number
21,889

§ Raw data

STARLINK-44681 53969U 22125F   26263.87333721  .00000985  00000+0  41249-4 0  99922 53969  53.1597  59.8598 0000606  86.7183 273.3889 15.33551347218898

JSON: /api/v1/satellites/53969 · /tle

For live sub-satellite position, see the globe view (requires WebGL).

§ Visibility from observer

Set your observer location to see the next 7 days of passes ≥ 10°. The values pass through the URL so the page stays shareable.

No JS? Fill the form by hand. The geolocation button needs JavaScript.